Date String (YYYY-MM-DD hh:mm:ss) UTC,Instrument flags,Ambient pressure (hPa),Sample flow (lpm),Bypass flow (lpm),Sample temperature (°C),Ambient temperature (°C),ASC tube jacket temperature (°C),LED temperature (°C),Box temperature (°C),Sample RH (%),Span deviation,Mass concentration (μg/m³),Mass concentration (μg/m³),Mass concentration (μg/m³)
DateTimeUTC,F1_M11,P_M11,Q1_M11,Q2_M11,T1_M11,T2_M11,T3_M11,T4_M11,T5_M11,U1_M11,ZSPAN_M11,X0_M11,X2_M11,X1_M11
2021-08-24 15:00:00,,0828.5,5.00,0.00,29.8,28.8,00.0,38.8,31.7,20.4,0000.0,0007.97,0003.58,0003.15
2021-08-24 15:01:00,,0828.5,5.01,0.00,29.9,28.9,00.0,38.9,31.7,20.3,0000.0,0008.02,0003.58,0003.14
2021-08-24 15:02:00,,0828.5,5.00,0.00,29.8,27.7,00.0,38.9,31.4,19.5,0000.0,0007.96,0003.54,0003.13
2021-08-24 15:03:00,,0828.4,5.01,0.00,29.7,26.3,00.0,38.8,31.0,17.9,0000.0,0007.74,0003.49,0003.13
2021-08-24 15:04:00,,0828.5,4.99,0.00,29.6,26.6,00.0,38.8,31.0,18.8,0000.0,0007.71,0003.48,0003.13
2021-08-24 15:05:00,,0828.5,5.01,0.00,29.6,27.0,00.0,38.8,31.1,18.5,0000.0,0007.70,0003.47,0003.12
2021-08-24 15:06:00,,0828.5,4.98,0.00,29.6,27.4,00.0,38.7,31.2,19.2,0000.0,0008.39,0003.47,0003.13
2021-08-24 15:07:00,,0828.5,5.01,0.00,29.6,27.7,00.0,38.7,31.3,18.7,0000.0,0008.32,0003.46,0003.12
2021-08-24 15:08:00,,0828.5,5.00,0.00,29.6,28.0,00.0,38.7,31.3,20.1,0000.0,0007.84,0003.47,0003.12
2021-08-24 15:09:00,,0828.5,5.00,0.00,29.6,28.3,00.0,38.7,31.4,20.4,0000.0,0008.39,0003.49,0003.12
2021-08-24 15:10:00,,0828.5,5.00,0.00,29.7,28.4,00.0,38.7,31.5,20.6,0000.0,0008.78,0003.52,0003.12
2021-08-24 15:11:00,,0828.5,5.00,0.00,29.7,28.6,00.0,38.7,31.5,19.7,0000.0,0008.79,0003.52,0003.12
2021-08-24 15:12:00,,0828.5,5.00,0.00,29.8,28.7,00.0,38.7,31.6,20.9,0000.0,0009.14,0003.51,0003.13
2021-08-24 15:13:00,,0828.5,5.01,0.00,29.8,28.9,00.0,38.8,31.6,20.7,0000.0,0008.77,0003.52,0003.14
2021-08-24 15:14:00,,0828.5,5.01,0.00,29.8,28.1,00.0,38.8,31.5,20.2,0000.0,0008.81,0003.53,0003.15
2021-08-24 15:15:00,,0828.5,4.99,0.00,29.7,26.5,00.0,38.8,31.1,19.3,0000.0,0008.85,0003.53,0003.15
2021-08-24 15:16:00,,0828.5,5.01,0.00,29.6,26.5,00.0,38.8,31.0,19.0,0000.0,0008.86,0003.55,0003.16
2021-08-24 15:17:00,,0828.5,4.99,0.00,29.6,26.9,00.0,38.7,31.1,18.9,0000.0,0008.25,0003.56,0003.17
2021-08-24 15:18:00,,0828.5,4.99,0.00,29.5,27.3,00.0,38.7,31.2,18.3,0000.0,0008.33,0003.60,0003.17
2021-08-24 15:19:00,,0828.5,5.01,0.00,29.5,27.7,00.0,38.7,31.3,18.0,0000.0,0008.26,0003.60,0003.18
2021-08-24 15:20:00,,0828.5,5.00,0.00,29.6,28.0,00.0,38.7,31.3,18.5,0000.0,0007.92,0003.60,0003.19
2021-08-24 15:21:00,,0828.5,5.00,0.00,29.6,28.2,00.0,38.7,31.4,18.2,0000.0,0007.81,0003.61,0003.21
2021-08-24 15:22:00,,0828.5,5.00,0.00,29.6,28.4,00.0,38.7,31.4,18.0,0000.0,0007.95,0003.66,0003.23
2021-08-24 15:23:00,,0828.5,5.00,0.00,29.7,28.6,00.0,38.7,31.5,18.4,0000.0,0007.91,0003.66,0003.25
2021-08-24 15:24:00,,0828.5,5.00,0.00,29.7,28.7,00.0,38.7,31.6,19.0,0000.0,0008.43,0003.68,0003.26
2021-08-24 15:25:00,,0828.5,5.00,0.00,29.7,28.3,00.0,38.7,31.4,19.0,0000.0,0008.61,0003.70,0003.27
2021-08-24 15:26:00,,0828.4,5.00,0.00,29.6,26.7,00.0,38.7,31.0,19.4,0000.0,0008.58,0003.71,0003.28
2021-08-24 15:27:00,,0828.5,5.01,0.00,29.5,26.3,00.0,38.7,30.9,19.0,0000.0,0008.94,0003.73,0003.30
2021-08-24 15:28:00,,0828.4,5.00,0.00,29.5,26.7,00.0,38.7,31.0,18.6,0000.0,0009.28,0003.77,0003.31
2021-08-24 15:29:00,,0828.4,5.00,0.00,29.5,27.1,00.0,38.6,31.1,18.3,0000.0,0009.18,0003.75,0003.34
2021-08-24 15:30:00,,0828.5,4.99,0.00,29.5,27.5,00.0,38.6,31.2,18.5,0000.0,0009.75,0003.75,0003.35
2021-08-24 15:31:00,,0828.5,5.01,0.00,29.5,27.8,00.0,38.6,31.2,19.2,0000.0,0009.93,0003.75,0003.35
2021-08-24 15:32:00,,0828.5,5.00,0.00,29.5,28.1,00.0,38.6,31.3,19.2,0000.0,0010.09,0003.75,0003.36
2021-08-24 15:33:00,,0828.5,4.98,0.00,29.6,28.3,00.0,38.6,31.4,18.4,0000.0,0009.59,0003.72,0003.36
2021-08-24 15:34:00,,0828.5,5.00,0.00,29.6,28.5,00.0,38.6,31.4,19.1,0000.0,0009.32,0003.71,0003.35
2021-08-24 15:35:00,,0828.4,5.00,0.00,29.7,28.6,00.0,38.6,31.5,18.0,0000.0,0008.63,0003.70,0003.36
2021-08-24 15:36:00,,0828.5,5.01,0.00,29.7,28.8,00.0,38.7,31.6,18.2,0002.4,0008.47,0003.72,0003.37
2021-08-24 15:37:00,,0828.5,4.99,0.00,29.7,27.9,00.0,38.7,31.3,17.6,0003.5,0008.49,0003.73,0003.38
2021-08-24 15:38:00,,0828.5,5.01,0.00,29.6,26.4,00.0,38.6,30.9,17.5,0003.9,0008.22,0003.71,0003.37
2021-08-24 15:39:00,,0828.5,5.00,0.00,29.5,26.4,00.0,38.6,30.9,17.6,0003.7,0007.74,0003.68,0003.36
2021-08-24 15:40:00,,0828.5,5.00,0.00,29.4,26.8,00.0,38.6,31.0,17.6,0003.7,0008.10,0003.70,0003.36
2021-08-24 15:41:00,,0828.5,4.98,0.00,29.4,27.2,00.0,38.6,31.1,18.9,0003.6,0008.28,0003.68,0003.35
2021-08-24 15:42:00,,0828.5,5.00,0.00,29.4,27.6,00.0,38.6,31.2,19.1,0003.1,0008.07,0003.68,0003.35
2021-08-24 15:43:00,,0828.5,5.01,0.00,29.5,27.9,00.0,38.6,31.2,19.0,0002.6,0007.50,0003.70,0003.35
2021-08-24 15:44:00,,0828.5,5.01,0.00,29.5,28.2,00.0,38.6,31.3,19.7,0002.6,0007.56,0003.70,0003.35
2021-08-24 15:45:00,,0828.5,5.00,0.00,29.6,28.4,00.0,38.6,31.4,19.3,0001.9,0007.69,0003.73,0003.36
2021-08-24 15:46:00,,0828.6,4.99,0.00,29.6,28.6,00.0,38.6,31.5,19.5,0001.6,0008.45,0003.75,0003.37
2021-08-24 15:47:00,,0828.5,5.01,0.00,29.6,28.0,00.0,38.6,31.3,19.0,0000.9,0008.91,0003.73,0003.37
2021-08-24 15:48:00,,0828.5,4.99,0.00,29.5,26.3,00.0,38.6,30.9,19.6,0000.0,0009.63,0003.72,0003.37
2021-08-24 15:49:00,,0828.5,5.01,0.00,29.4,26.2,00.0,38.6,30.8,18.9,0000.0,0009.62,0003.73,0003.38
2021-08-24 15:50:00,,0828.5,5.00,0.00,29.4,26.7,00.0,38.6,30.9,19.6,0000.0,0009.58,0003.73,0003.39
2021-08-24 15:51:00,,0828.5,4.99,0.00,29.3,27.1,00.0,38.5,31.0,19.9,0000.0,0009.19,0003.70,0003.38
2021-08-24 15:52:00,,0828.4,5.01,0.00,29.4,27.5,00.0,38.5,31.1,18.6,0000.0,0009.00,0003.74,0003.39
2021-08-24 15:53:00,,0828.7,5.00,0.00,29.4,27.8,00.0,38.5,31.2,18.9,0000.0,0009.28,0003.75,0003.38
2021-08-24 15:54:00,,0829.1,5.00,0.00,29.4,28.1,00.0,38.5,31.2,19.7,0000.0,0009.49,0003.71,0003.37
2021-08-24 15:55:00,,0829.0,5.00,0.00,29.5,28.3,00.0,38.5,31.3,19.0,0000.0,0009.70,0003.70,0003.36
2021-08-24 15:56:00,,0828.9,5.01,0.00,29.5,28.5,00.0,38.5,31.4,18.4,0000.0,0010.13,0003.70,0003.35
2021-08-24 15:57:00,,0829.1,4.99,0.00,29.5,28.1,00.0,38.5,31.3,18.7,0000.0,0009.51,0003.70,0003.34
2021-08-24 15:58:00,,0828.8,5.01,0.00,29.4,26.4,00.0,38.5,30.7,19.4,0000.0,0008.86,0003.67,0003.33
2021-08-24 15:59:00,,0828.5,5.00,0.00,29.3,26.1,00.0,38.5,30.6,18.8,0000.0,0008.08,0003.66,0003.32
